This is the latest recevied weather packets stored in our database for station/object HB9FHL-13. If no packets are shown the sender has not sent any weather packets the latest 10 day(s).
| Time | Temp. | Humidity | Pressure | Rain* | Wind** | Luminosity | Snow |
|---|---|---|---|---|---|---|---|
| 1788161182 | 16.67° C | - | 1017.5 hPa | 3.3 mm | - | - | - |
| 1788160914 | 17.22° C | - | 1024.6 hPa | 3.3 mm | - | - | - |
| 1788160882 | 17.22° C | - | 1024.6 hPa | 3.3 mm | - | - | - |
| 1788160630 | 17.22° C | - | 1021.7 hPa | 3.3 mm | - | - | - |
| 1788160581 | 17.22° C | - | 1021.7 hPa | 3.3 mm | - | - | - |
| 1788160280 | 17.78° C | - | 1021.2 hPa | 3.3 mm | - | - | - |
| 1788159979 | 17.22° C | - | 1017.2 hPa | 3.3 mm | - | - | - |
| 1788159739 | 17.78° C | - | 1020.1 hPa | 3.3 mm | - | - | - |
| 1788159679 | 17.78° C | - | 1020.1 hPa | 3.3 mm | - | - | - |
| 1788159378 | 17.78° C | - | 1020.6 hPa | 3.3 mm | - | - | - |
| 1788159078 | 17.78° C | - | 1022 hPa | 3.3 mm | - | - | - |
| 1788158777 | 17.78° C | - | 1022.5 hPa | 3.3 mm | - | - | - |
| 1788158477 | 17.78° C | - | 1022.4 hPa | 3.3 mm | - | - | - |
| 1788158176 | 18.33° C | - | 1021.5 hPa | 3.3 mm | - | - | - |
| 1788157876 | 18.33° C | - | 1017.5 hPa | 3.3 mm | - | - | - |
| 1788157575 | 17.22° C | - | 1021 hPa | 3.3 mm | - | - | - |
| 1788157275 | 18.89° C | - | 1019.2 hPa | 3.3 mm | - | - | - |
| 1788156974 | 17.78° C | - | 1019.6 hPa | 3.3 mm | - | - | - |
| 1788156725 | 17.78° C | - | 1017.8 hPa | 3.3 mm | - | - | - |
| 1788156674 | 17.78° C | - | 1017.8 hPa | 3.3 mm | - | - | - |
| 1788156373 | 18.33° C | - | 1019.8 hPa | 3.3 mm | - | - | - |
| 1788156073 | 17.22° C | - | 1023.8 hPa | 3.3 mm | - | - | - |
| 1788155881 | 18.33° C | - | 1020.5 hPa | 3.3 mm | - | - | - |
| 1788155773 | 18.33° C | - | 1020.5 hPa | 3.3 mm | - | - | - |
| 1788155472 | 18.33° C | - | 1020.8 hPa | 3.3 mm | - | - | - |
* Rain since midnight (hover to see other rain measurements)
** Current wind speed in m/s (hover to see current wind gust speed)